Regional Weather Roundup
Issued by NWS Cleveland, OH

Home | Current Version | Previous Version | Graphics & Text | Print | Product List | Glossary On
Versions: 1 2 3 4 5 6 7 8 9 10 11 12 13 14 15 16 17 18 19 20 21 22 23 24 25 26 27 28 29 30 31 32 33 34 35 36 37 38 39 40 41 42 43 44 45 46 47 48 49 50
000
ASUS41 KCLE 291000
RWRCLE
OHIO REGIONAL WEATHER ROUNDUP
NATIONAL WEATHER SERVICE WILMINGTON, OH
600 AM EDT WED JUL 29 2015

NOTE: "FAIR" INDICATES FEW OR NO CLOUDS BELOW 12,000 FEET WITH NO
SIGNIFICANT WEATHER AND/OR OBSTRUCTIONS TO VISIBILITY.

OHZ001>008-015>018-024>027-034-035-043-044-291100-
   NORTHWEST OHIO

CITY           SKY/WX    TMP DP  RH WIND       PRES   REMARKS
DEFIANCE       CLEAR     70  65  84 CALM      29.97R
FINDLAY        CLEAR     70  66  87 CALM      29.96S
TOLEDO EXPRESS PTCLDY    66  65  96 CALM      29.96R
TOLEDO EXEC    PTCLDY    71  65  81 CALM      29.97R
LIMA           CLEAR     71  67  87 S6        29.97S
$$

OHZ009>014-019>023-028>033-038-089-291100-
   NORTHEAST OHIO

CITY           SKY/WX    TMP DP  RH WIND       PRES   REMARKS
CLE-HOPKINS    PTCLDY    68  62  81 CALM      29.99S
CLE-LAKEFRONT  CLEAR     73  61  65 S10       29.95S
CUY CO. ARPT   NOT AVBL
LORAIN-ELYRIA  CLEAR     63  61  93 CALM      29.98S
ASHTABULA      CLEAR     66  64  93 CALM      30.00R
AKRON-CANTON   PTCLDY    70  63  78 NE3       30.00R
WOOSTER        NOT AVBL
MANSFIELD      CLEAR     67  65  93 S3        30.00S
YOUNGSTOWN     PTCLDY    65  63  93 E5        30.00R
$$

OHZ042-051>053-060>062-070>072-077>081-291100-
  SOUTHWEST OHIO

CITY           SKY/WX    TMP DP  RH WIND       PRES   REMARKS
CINC-COVINGTON PTCLDY    73  71  93 CALM      29.98S FOG
CINC-LUNKEN    FOG       71  71 100 CALM      29.98R VSB 1/2
HAMILTON       CLEAR     71  70  96 CALM      29.98S FOG
DAYTON         NOT AVBL
WRIGHT-PAT AFB NOT AVBL
DAYTON GENERAL CLEAR     73  70  90 CALM      29.98R FOG
WILMINGTON     CLEAR     69  67  93 CALM      29.99R FOG
$$

OHZ036-037-039>041-045>050-054>059-063>069-073>076-082>088-291100-
  CENTRAL AND SOUTHEAST OHIO

CITY           SKY/WX    TMP DP  RH WIND       PRES   REMARKS
COLUMBUS       PTCLDY    71  68  90 CALM      29.98R
OSU AIRPORT    CLEAR     70  69  97 CALM      29.99R FOG
BOLTON FIELD   NOT AVBL
RICKENBACK AFB NOT AVBL
NEWARK         CLEAR     68  66  93 CALM      29.98R FOG
MARION         CLEAR     67  64  90 CALM      29.99R FOG
LANCASTER      CLEAR     67  66  97 CALM      29.98R FOG
ZANESVILLE     CLEAR     69  66  90 CALM      29.98R FOG
NEW PHILLY     CLEAR     66  65  96 CALM      29.99R
$$



USA.gov is the U.S. government's official web portal to all federal, state and local government web resources and services.